Location: Les Salelles
(44.4192°N, 4.1044°E)
Time: 16:05:28
(UTC+00:00)

Cosmos 1455 - Pass Details

Date: 20 January 2021
Orbit: 499 x 520 km, 82.5° (Epoch: 25 February)

Event Time Altitude Azimuth Distance (km) Brightness Sun altitude
Rises 18:56:21 0° 342° (NNW) 2,628 6.0 -24.6°
Reaches altitude 10° 18:58:37 10° 332° (NNW) 1,741 5.1 -25.0°
Maximum altitude 19:02:02 32° 268° (W) 892 3.9 -25.7°
Drops below altitude 10° 19:05:28 10° 204° (SSW) 1,738 5.2 -26.3°
Sets 19:07:44 0° 195° (SSW) 2,623 6.0 -26.7°
